Location: Cartersville (historical)
(42.9944°N, 93.0869°W)
Time: 02:39:08
(UTC+00:00)

ACS3 Solar Sail - Pass Details

Date: 04 October 2024
Orbit: 961 x 1022 km, 97.5° (Epoch: 03 November)

Event Time Altitude Azimuth Distance (km) Brightness Sun altitude
Rises 17:41:02 0° 348° (NNW) 3,797 4.4 42.4°
Enters shadow 18:42:52 -69° 106° (ESE) 12,942 7.2 41.7°
Exits shadow 19:05:35 -34° 51° (NE) 8,701 6.1 40.4°
Maximum altitude 00:25:21 15° 57° (ENE) 2,476 3.4 -7.5°
